UFO 2 (USA 95)

Last updated on Tue Sep 16 2025 00:02:45 GMT+0000 (Coordinated Universal Time)

1 22787U 93056A 25257.94790770 .00000114 00000+0 00000+0 0 9997 2 22787 11.8001 5.0206 0003641 224.7785 134.2808 1.00274649115782
UTC large
Height (km)
Speed (km/s)
/
Latitude / Longitude
Inclination (degrees)
Orbital Period (minutes)
Azimuth
Elevation
Range (km)
Doppler Factor

Next 0 passes for location: London (51.5072 / 0.1276)

Sorry there are no passes over London.